• MPC Preparation (Info)

  • MPEC 2023-P80 : 1993 RP = 2015 VR202

    The following Minor Planet Electronic Circular may be linked-to from your own Web pages, but must not otherwise be redistributed electronically.

    A form allowing access to any MPEC is at the bottom of this page.


    Read MPEC 2023-P79 Read MPEC 2023-P81


    M.P.E.C. 2023-P80                               Issued 2023 August 14, 17:34 UT
    
         The Minor Planet Electronic Circulars contain information on unusual
             minor planets, routine data on comets and natural satellites,
             and occasional editorial announcements.  They are published
        on behalf of Division F of the International Astronomical Union by the
              Minor Planet Center, Smithsonian Astrophysical Observatory,
                              Cambridge, MA 02138, U.S.A.
    			  
                 Prepared using the Tamkin Foundation Computer Network
    
                                  MPC@CFA.HARVARD.EDU
                URL https://www.minorplanetcenter.net/    ISSN 1523-6714
    
                              1993 RP = 2015 VR202                           
    
                             Revision to MPEC 2021-J131
    
    Orbital elements:
    1993 RP = 2015 VR202
    Id. P. VanWylen
    Epoch 2023 Sept. 13.0 TT = JDT 2460200.5                Veres                   
    M 325.20432              (2000.0)            P               Q                  
    n   0.00470865     Peri.  273.72686     -0.27424857     -0.96152574             
    a  35.2537324      Node   192.22637     +0.90957722     -0.25395902             
    e   0.0605801      Incl.    4.33273     +0.31218103     -0.10475241             
    P 209              H    9.37          G   0.15           U   3                  
    Residuals in seconds of arc
    930915 568  0.0   0.8-    151106 568  0.1+  0.2-    161007 568  0.2-  0.2+
    930915 568  0.3-  0.7-    151106 568  0.0   0.2+    161007 568  0.0   0.1-
    930916 568  0.2-  0.3-    151107 568  0.0   0.0     161007 568  0.1+  0.1-
    930916 568  0.0   0.2-    151117 568  0.0   0.0     161009 568  0.1+  0.0
    930917 568  0.4+  0.6+    151117 568  0.2-  0.0     161009 568  0.0   0.1-
    930917 568  0.4+  0.4+    151206 568  0.2-  0.1-    161010 568  0.0   0.0
    150820 568  0.0   0.1+    151206 568  0.0   0.1-    161010 568  0.1+  0.1-
    150907 568  0.1+  0.0     151231 568  0.1+  0.0     161028 568  0.1+  0.0
    150912 568  0.1+  0.1+    160107 568  0.1+  0.0     161029 568  0.0   0.1+
    151007 568  0.0   0.0     160205 568  0.0   0.0     161029 568  0.0   0.1-
    151007 568  0.1-  0.1+    160211 568  0.1+  0.1+    161102 568  0.1-  0.0
    151009 568  0.0   0.0     160907 568  0.1-  0.0
    151106 568  0.2-  0.0     160927 568  0.0   0.0
    
    Ephemeris:
    1993 RP                  a,e,i = 35.25, 0.06, 4                  q = 33.1181
    Date    TT    R. A. (2000) Decl.     Delta      r    Elong.  Phase     V
    2023 07 15    04 26 15.9 +18 12 02  34.2719 33.5521    44.3     1.2    24.8
    ...
    2023 07 30    04 27 41.9 +18 13 52  34.0735 33.5504    58.3     1.5    24.9
    ...
    2023 08 07    04 28 19.1 +18 14 25  33.9535 33.5495    65.7     1.6    24.9
    ...
    2023 08 13    04 28 42.6 +18 14 37  33.8585 33.5488    71.4     1.6    24.9
    2023 08 14    04 28 46.1 +18 14 38  33.8423 33.5487    72.3     1.6    24.9
    2023 08 15    04 28 49.5 +18 14 39  33.8260 33.5486    73.3     1.7    24.9
    ...
    2023 08 21    04 29 07.6 +18 14 37  33.7269 33.5480    79.0     1.7    24.9
    ...
    2023 08 29    04 29 25.1 +18 14 18  33.5918 33.5471    86.6     1.7    24.8
    ...
    2023 09 13    04 29 36.9 +18 12 54  33.3377 33.5454   101.1     1.7    24.8
    
    M. P. C. Staff               (C) Copyright 2023 MPC           M.P.E.C. 2023-P80
    


    Read MPEC 2023-P79 Read MPEC 2023-P81


    MPEC number:

    Enter an MPEC number in one of the following forms:

    • 1997-B01 (the full form)
    • J97B01 (the packed version of the full form)
    • B01 (the abbreviated form)